Regional Weather Roundup
Issued by NWS

Home | Current Version | Previous Version | Text Only | Print | Product List | Glossary On
Versions: 1 2 3 4 5 6 7 8 9 10 11 12 13 14 15 16 17 18 19 20 21 22 23 24 25 26 27 28 29 30 31 32 33 34 35 36 37 38 39 40 41 42 43 44 45 46 47 48 49 50
000
ASUS44 KOUN 280010
RWROK

WEATHER ROUNDUP FOR OKLAHOMA
NATIONAL WEATHER SERVICE NORMAN OK
600 PM CST MON FEB 27 2017

NOTE: "FAIR" INDICATES FEW OR NO CLOUDS BELOW 12,000 FEET WITH NO
      SIGNIFICANT WEATHER AND/OR OBSTRUCTIONS TO VISIBILITY.

OKZ001>007-009>012-014-015-017-280100-
NORTHWEST OKLAHOMA AND THE PANHANDLE

CITY           SKY/WX    TMP DP  RH WIND       PRES   REMARKS
GAGE           CLEAR     70  29  21 S17       29.71R
6HR MIN TEMP:  68; 6HR MAX TEMP:  75;

GUYMON         CLOUDY    70  11  10 SW25G36   29.64S
ENID/WOODRING  PTCLDY    68  54  60 S12       29.75R
$$

OKZ016-021>023-033>039-044-045-280100-
SOUTHWEST OKLAHOMA

CITY           SKY/WX    TMP DP  RH WIND       PRES   REMARKS
LAWTON/REGL    CLEAR     75  49  39 S10       29.77S
6HR MIN TEMP:  67; 6HR MAX TEMP:  79;

LAWTON/FT SILL CLEAR     75  49  39 S12       29.76S
FREDERICK      CLEAR     74  35  24 S12       29.74R
CLINTON        CLEAR     69  44  40 SE7       29.76F
HOBART         CLEAR     71  41  33 S14       29.76R
ALTUS AFB      CLEAR     72  34  24 S13       29.75R
$$

OKZ018>020-024>031-280100-
CENTRAL OKLAHOMA

CITY           SKY/WX    TMP DP  RH WIND       PRES   REMARKS
OKLAHOMA CITY  PTCLDY    67  58  72 S15G23    29.79R
6HR MIN TEMP:  67; 6HR MAX TEMP:  74;

OKC/WILEY POST CLEAR     71  57  61 S16       29.78S
OKC/TINKER AFB CLEAR     66  58  74 SE9G17    29.79S
STILLWATER     CLEAR     67  56  67 S18       29.77S
GUTHRIE        PTCLDY    70  56  61 S13       29.77R
$$

OKZ008-013-054>072-280100-
NORTHEAST OKLAHOMA

CITY           SKY/WX    TMP DP  RH WIND       PRES   REMARKS
TULSA          CLOUDY    65  59  81 S16G29    29.80F
6HR MIN TEMP:  56; 6HR MAX TEMP:  68;

TULSA/JONES    CLOUDY    64  57  78 S15       29.83F
PONCA CITY     PTCLDY    69  52  54 S15G25    29.75R
BARTLESVILLE   CLOUDY    66  55  67 S12G22    29.81S
MUSKOGEE       CLOUDY    63  59  87 S10       29.88R
$$

OKZ032-040>043-046>053-073>077-280100-
SOUTH CENTRAL/SOUTHEAST OKLAHOMA

CITY           SKY/WX    TMP DP  RH WIND       PRES   REMARKS
ARDMORE/DWNTWN PTCLDY    72  59  64 S7        29.83R
MCALESTER      CLOUDY    63  57  81 VRB7      29.88S
$$





USA.gov is the U.S. government's official web portal to all federal, state and local government web resources and services.